Waterloo, IA

12:19 PM CDT on June 28, 2017 (GMT -0500)
Waterloo Municipal

Weather History for KALO - June, 2014

Change the Weather History Date:

Monday, June 23, 2014

  Actual Average Record
Temperature  
Mean Temperature 72 °F 72 °F  
Max Temperature 82 °F 83 °F 103 °F (1931)
Min Temperature 62 °F 61 °F 42 °F (1902)
Degree Days  
Heating Degree Days 0 0  
Month to date heating degree days 7 23  
Since 1 June heating degree days 7 23  
Since 1 July heating degree days 8325 7027  
Cooling Degree Days 7 8  
Month to date cooling degree days 114 121  
Year to date cooling degree days 181 177  
Since 1 June cooling degree days 114 121  
Growing Degree Days 22 (Base 50)    
Moisture  
Dew Point 64 °F    
Average Humidity 79    
Maximum Humidity 100    
Minimum Humidity 58    
Precipitation  
Precipitation T in 0.16 in 2.51 in (1994)
Month to date precipitation 6.37 3.76  
Year to date precipitation 20.40 15.88  
Snow  
Snow 0.00 in 0.00 in - ()
Month to date snowfall 0.0 0.0  
Since 1 June snowfall 0.0 0.0  
Since 1 July snowfall 58.0 35.3  
Snow Depth 0.00 in    
Sea Level Pressure  
Sea Level Pressure 29.85 in    
Wind  
Wind Speed 4 mph (WNW)    
Max Wind Speed 15 mph    
Max Gust Speed 17 mph    
Visibility 8 miles    
Events Fog    
T = Trace of Precipitation, MM = Missing Value Source: NWS Daily Summary

Daily Weather History Graph

Daily Weather History Graph

Search for Another Location

Airport or City:

Trip Planner

Search our weather history database for the weather conditions in past years. The results will help you decide how hot, cold, wet, or windy it might be!

Date:

Astronomy

Jun. 23, 2014 Rise Set
Actual Time 5:32 AM CDT 8:51 PM CDT
Civil Twilight 4:57 AM CDT 9:26 PM CDT
Nautical Twilight 4:12 AM CDT 10:11 PM CDT
Astronomical Twilight 3:16 AM CDT 11:06 PM CDT
Moon 3:02 AM CDT (6/23) 5:29 PM CDT (6/23)
Length of Visible Light 16h 28m
Length of Day
15h 18m
Waning Crescent, 13% of the Moon is Illuminated
Jun 23
Waning Crescent
Jun 27
New
Jul 5
First Quarter
Jul 12
Full
Jul 18
Last Quarter

Hourly Weather History & Observations

Time (CDT) Temp. Heat Index Dew Point Humidity Pressure Visibility Wind Dir Wind Speed Gust Speed Precip Events Conditions
12:05 AM 63.0 °F - 62.1 °F 97% 29.84 in 4.0 mi Calm Calm - N/A   Mostly Cloudy
12:22 AM 63.0 °F - 63.0 °F 100% 29.84 in 1.5 mi Calm Calm - N/A   Scattered Clouds
12:25 AM 62.6 °F - 62.6 °F 100% 29.84 in 0.8 mi Calm Calm - N/A   Mist
12:54 AM 61.0 °F - 61.0 °F 100% 29.83 in 0.5 mi Calm Calm - N/A Fog Fog
1:03 AM 62.1 °F - 62.1 °F 100% 29.84 in 0.2 mi Calm Calm - N/A Fog Fog
1:14 AM 62.1 °F - 62.1 °F 100% 29.83 in 0.5 mi Calm Calm - N/A Fog Fog
1:22 AM 63.0 °F - 62.1 °F 97% 29.82 in 2.5 mi Calm Calm - N/A   Overcast
1:29 AM 63.0 °F - 63.0 °F 100% 29.83 in 9.0 mi Calm Calm - N/A   Overcast
1:54 AM 64.0 °F - 64.0 °F 100% 29.83 in 10.0 mi East 4.6 mph - N/A   Overcast
2:50 AM 64.4 °F - 64.4 °F 100% 29.85 in 10.0 mi SSW 3.5 mph - N/A   Overcast
2:54 AM 64.9 °F - 64.0 °F 97% 29.84 in 10.0 mi Calm Calm - N/A   Overcast
3:54 AM 66.2 °F - 64.4 °F 94% 29.83 in 10.0 mi Calm Calm - N/A   Overcast
4:54 AM 66.0 °F - 64.9 °F 96% 29.83 in 8.0 mi Calm Calm - N/A   Overcast
5:54 AM 66.0 °F - 64.9 °F 96% 29.83 in 8.0 mi SE 3.5 mph - N/A   Overcast
6:15 AM 66.0 °F - 64.9 °F 96% 29.84 in 6.0 mi Calm Calm - N/A   Overcast
6:54 AM 66.9 °F - 64.9 °F 93% 29.83 in 7.0 mi Calm Calm - N/A   Overcast
7:54 AM 68.0 °F - 66.0 °F 93% 29.82 in 10.0 mi SE 3.5 mph - N/A   Scattered Clouds
8:54 AM 70.0 °F - 64.0 °F 81% 29.85 in 10.0 mi Variable 5.8 mph - N/A   Mostly Cloudy
9:54 AM 71.1 °F - 63.0 °F 75% 29.86 in 10.0 mi Calm Calm - N/A   Overcast
10:54 AM 75.0 °F - 64.0 °F 69% 29.86 in 10.0 mi Variable 3.5 mph - N/A   Mostly Cloudy
11:30 AM 75.9 °F - 64.0 °F 67% 29.88 in 10.0 mi Calm Calm - N/A   Scattered Clouds
11:52 AM 73.4 °F - 64.4 °F 73% 29.89 in 10.0 mi West 5.8 mph - N/A   Mostly Cloudy
11:54 AM 73.9 °F - 64.9 °F 73% 29.88 in 10.0 mi Variable 4.6 mph - N/A   Mostly Cloudy
12:10 PM 75.9 °F - 64.9 °F 69% 29.89 in 10.0 mi WNW 4.6 mph - N/A   Mostly Cloudy
12:54 PM 77.0 °F - 66.0 °F 69% 29.88 in 10.0 mi WSW 5.8 mph - N/A   Mostly Cloudy
1:10 PM 78.1 °F - 66.0 °F 66% 29.88 in 10.0 mi NW 5.8 mph - N/A   Scattered Clouds
1:54 PM 78.8 °F - 66.2 °F 65% 29.88 in 10.0 mi WNW 5.8 mph - N/A   Clear
2:54 PM 79.0 °F - 64.9 °F 62% 29.87 in 10.0 mi NW 5.8 mph - N/A   Clear
3:54 PM 80.6 °F 82.7 °F 66.2 °F 61% 29.85 in 10.0 mi WNW 4.6 mph - N/A   Clear
4:54 PM 80.6 °F 82.3 °F 64.4 °F 58% 29.83 in 10.0 mi NW 4.6 mph - N/A   Clear
5:54 PM 80.1 °F 81.9 °F 64.9 °F 60% 29.82 in 10.0 mi NW 6.9 mph - N/A   Clear
6:54 PM 78.1 °F - 64.0 °F 62% 29.83 in 10.0 mi WNW 3.5 mph - N/A   Partly Cloudy
7:54 PM 73.0 °F - 63.0 °F 71% 29.84 in 10.0 mi WNW 11.5 mph - N/A   Partly Cloudy
8:54 PM 71.1 °F - 64.0 °F 78% 29.85 in 10.0 mi WNW 6.9 mph - 0.00 in   Mostly Cloudy
9:54 PM 69.1 °F - 64.0 °F 84% 29.88 in 10.0 mi Calm Calm - N/A   Mostly Cloudy
10:54 PM 66.9 °F - 64.9 °F 93% 29.88 in 10.0 mi WNW 4.6 mph - N/A   Scattered Clouds
11:54 PM 66.9 °F - 64.9 °F 93% 29.88 in 10.0 mi WNW 5.8 mph - N/A   Clear